Location: Powder Track
(41.8531°N, 72.3584°W)
Time: 05:48:43
(UTC+00:00)

X-37B - Pass Details

Date: 24 June 2021
Orbit: 383 x 392 km, 45.0° (Epoch: 01 July)

Event Time Altitude Azimuth Distance (km) Brightness Sun altitude
Rises 01:04:13 0° 216° (SW) 2,245 4.4 -6.2°
Reaches altitude 10° 01:06:31 10° 202° (SSW) 1,395 3.2 -6.5°
Maximum altitude 01:09:05 23° 146° (SSE) 858 1.8 -6.9°
Drops below altitude 10° 01:11:40 10° 91° (E) 1,400 2.9 -7.3°
Sets 01:13:59 0° 77° (ENE) 2,256 4.1 -7.6°
